www.pogodaiklimat.ru

Погода и климат >> Архив погоды >> Япония >> Хита


ПОГОДА в Хите

  • Прогноз погоды в Хите
  • Монитор погоды в Хите

АРХИВ ПОГОДЫ в Хите

Время (UTC), дата Ветер
(напр.,м/с)
 
Видим.   Явления Облачность Т
(С)
Тd
(С)
f
(%)
Тe
(С)
Тes
(С)
Комфортность P
(гПа)
Po
(гПа)
Тmin
(С)
Tmax
(С)
R
(мм)
R24
(мм)
S
(см)
13 12.08 В 4 20 км н/о +30.1 +23.3 67 +41 +41 опасность
перегрева
1003.3 993.9
14 12.08 В 3 20 км н/о +28.9 +23.6 73 +39 +39 очень
душно
1003.0 993.6
15 12.08 штиль 0 20 км н/о +28.1 +23.7 77 +39 +39 очень
душно
1002.9 993.5
16 12.08 ЮЗ 1 20 км н/о +27.3 +23.8 81 +37 +37 очень
душно
1002.6 993.1
17 12.08 Ю 1 20 км н/о +26.7 +23.6 83 +36 +36 очень
душно
1002.3 992.8
18 12.08 ЮВ 1 20 км н/о +26.1 +23.4 85 +35 +35 очень
душно
1001.8 992.3
19 12.08 ЮВ 2 20 км н/о +25.7 +23.2 86 +34 +34 очень
душно
1001.6 992.1
20 12.08 Ю 1 20 км н/о +25.3 +23.4 89 +34 +34 очень
душно
1001.8 992.3
21 12.08 ЮВ 1 20 км н/о +25.0 +23.3 90 +33 +33 очень
душно
1002.0 992.5
22 12.08 ЮВ 1 20 км н/о +26.2 +23.1 83 +35 +35 очень
душно
1002.3 992.8
23 12.08 ЮЗ 2 20 км н/о +27.9 +23.5 77 +38 +38 очень
душно
1002.0 992.6
00 13.08 В 3 20 км н/о +31.3 +24.2 66 +43 +43 опасность
перегрева
1001.6 992.3 +25.0
01 13.08 В 3 20 км н/о +33.7 +25.1 61 +48 +48 опасность
перегрева
1001.0 991.8
02 13.08 СВ 5 20 км н/о +34.1 +24.1 56 +46 +46 опасность
перегрева
1000.8 991.6
03 13.08 В 6 20 км н/о +34.2 +22.9 52 +44 +44 опасность
перегрева
1000.4 991.2
04 13.08 СВ 5 20 км н/о +34.7 +24.0 54 +46 +46 опасность
перегрева
999.8 990.6
05 13.08 В 5 20 км н/о +33.8 +23.5 55 +45 +45 опасность
перегрева
999.5 990.3
06 13.08 СВ 5 20 км н/о +34.0 +24.0 56 +46 +46 опасность
перегрева
999.0 989.8
07 13.08 В 5 20 км н/о +33.6 +23.6 56 +45 +45 опасность
перегрева
998.8 989.6
08 13.08 В 5 20 км н/о +33.9 +24.2 57 +46 +46 опасность
перегрева
998.5 989.3
09 13.08 В 4 20 км н/о +32.5 +24.3 62 +45 +45 опасность
перегрева
998.7 989.4
10 13.08 В 3 20 км н/о +31.4 +24.3 66 +44 +44 опасность
перегрева
999.0 989.7
11 13.08 В 3 20 км н/о +30.7 +23.6 66 +42 +42 опасность
перегрева
999.4 990.1
12 13.08 В 2 20 км н/о +30.4 +23.6 67 +41 +41 опасность
перегрева
999.6 990.3 +35.5
13 13.08 ЮВ 2 20 км н/о +29.8 +23.7 70 +41 +41 опасность
перегрева
999.6 990.2
14 13.08 ЮВ 2 20 км н/о +29.5 +23.7 71 +40 +40 очень
душно
999.3 989.9
15 13.08 В 2 20 км н/о +29.0 +23.7 73 +40 +40 очень
душно
998.9 989.5
16 13.08 ЮВ 3 20 км н/о +28.5 +24.1 77 +40 +40 очень
душно
998.3 988.9
17 13.08 ЮВ 2 20 км н/о +28.4 +24.0 77 +39 +39 очень
душно
997.9 988.5
18 13.08 ЮВ 2 20 км н/о +28.1 +23.9 78 +39 +39 очень
душно
997.5 988.1
19 13.08 В 2 20 км н/о +28.2 +24.0 78 +39 +39 очень
душно
997.0 987.6
21 13.08 В 2 20 км н/о +28.1 +23.7 77 +39 +39 очень
душно
996.9 987.5
22 13.08 В 3 20 км н/о +28.9 +23.8 74 +40 +40 очень
душно
996.6 987.2
23 13.08 В 5 20 км н/о +29.5 +23.7 71 +40 +40 очень
душно
996.1 986.8
00 14.08 В 5 20 км н/о +30.5 +23.7 67 +42 +42 опасность
перегрева
995.7 986.4 +27.7
01 14.08 В 5 20 км н/о +31.9 +24.2 64 +44 +44 опасность
перегрева
994.7 985.5
02 14.08 СВ 6 20 км н/о +31.5 +23.6 63 +43 +43 опасность
перегрева
994.6 985.3
03 14.08 В 5 20 км слаб. дождь н/о +32.0 +23.0 59 +42 +42 опасность
перегрева
993.5 984.3
04 14.08 СВ 5 10 км слаб. дождь н/о +28.4 +25.2 83 +41 +41 опасность
перегрева
993.4 984.1
05 14.08 В 6 20 км слаб. дождь н/о +28.5 +24.7 80 +41 +41 опасность
перегрева
992.6 983.3
06 14.08 ЮВ 2 16 км слаб. дождь н/о +27.6 +24.7 84 +39 +39 очень
душно
991.8 982.4 1
07 14.08 В 3 11 км слаб. дождь н/о +27.3 +24.8 86 +39 +39 очень
душно
990.9 981.5
08 14.08 В 4 10 км слаб. дождь н/о +26.8 +25.0 90 +39 +39 очень
душно
990.7 981.3
09 14.08 СВ 3 13 км слаб. дождь н/о +27.6 +25.1 86 +40 +40 очень
душно
989.4 980.1
10 14.08 СВ 7 20 км слаб. дождь н/о +27.5 +25.0 86 +39 +39 очень
душно
989.2 979.9
11 14.08 СВ 7 20 км слаб. дождь н/о +28.3 +24.7 81 +40 +40 очень
душно
988.8 979.5
12 14.08 СВ 6 13 км слаб. дождь н/о +27.9 +25.0 84 +40 +40 очень
душно
988.6 979.3 +33.2 4
13 14.08 В 6 9000 м слаб. дождь н/о +27.0 +25.4 91 +39 +39 очень
душно
988.3 979.0
14 14.08 В 6 11 км слаб. дождь н/о +27.2 +25.2 89 +39 +39 очень
душно
987.5 978.2
15 14.08 З 1 20 км слаб. дождь н/о +27.7 +25.0 85 +40 +40 очень
душно
985.5 976.2
16 14.08 Ю 1 8000 м слаб. дождь н/о +26.2 +25.5 96 +38 +38 очень
душно
983.9 974.6
17 14.08 ЮЗ 2 7000 м слаб. дождь н/о +26.1 +25.4 96 +38 +38 очень
душно
983.5 974.2
18 14.08 ЮЗ 2 8000 м слаб. дождь н/о +26.0 +25.3 96 +38 +38 очень
душно
982.7 973.4 5
19 14.08 З 4 20 км слаб. дождь н/о +25.8 +25.5 98 +38 +38 очень
душно
982.0 972.7
20 14.08 З 4 5000 м слаб. дождь н/о +25.7 +25.2 97 +37 +37 очень
душно
981.7 972.4
21 14.08 З 4 7000 м дождь н/о +25.5 +25.0 97 +36 +36 очень
душно
981.4 972.1
22 14.08 З 3 9000 м слаб. дождь н/о +25.6 +25.3 98 +37 +37 очень
душно
981.8 972.5
23 14.08 З 3 16 км слаб. дождь н/о +25.7 +25.5 99 +37 +37 очень
душно
981.9 972.6
00 15.08 З 5 20 км в посл. час дождь н/о +26.5 +25.6 95 +39 +39 очень
душно
981.9 972.6 +25.3 19
01 15.08 З 5 11 км слаб. дождь н/о +27.0 +26.1 95 +41 +41 опасность
перегрева
982.2 972.9
02 15.08 З 6 6000 м слаб. дождь н/о +26.5 +26.0 97 +40 +40 очень
душно
982.2 972.9
03 15.08 З 5 7000 м слаб. дождь н/о +26.8 +25.9 95 +40 +40 очень
душно
982.2 972.9
04 15.08 З 5 5000 м слаб. дождь н/о +26.8 +26.5 98 +41 +41 опасность
перегрева
982.6 973.3
05 15.08 З 8 17 км слаб. дождь н/о +26.9 +25.9 94 +40 +40 очень
душно
983.4 974.1
06 15.08 З 7 7000 м дождь н/о +26.6 +25.7 95 +39 +39 очень
душно
984.4 975.1 8
07 15.08 З 8 5000 м дождь н/о +26.7 +25.7 94 +39 +39 очень
душно
985.2 975.9
08 15.08 З 6 8000 м дождь н/о +26.3 +25.8 97 +39 +39 очень
душно
986.2 976.9
09 15.08 З 5 18 км слаб. дождь н/о +26.5 +25.5 94 +39 +39 очень
душно
987.1 977.8
10 15.08 З 4 6000 м слаб. дождь н/о +26.2 +25.5 96 +38 +38 очень
душно
988.4 979.0
11 15.08 З 6 14 км слаб. дождь н/о +26.6 +25.4 93 +39 +39 очень
душно
989.3 979.9
12 15.08 З 6 6000 м слаб. дождь н/о +26.8 +25.2 91 +39 +39 очень
душно
990.4 981.0 +27.4 32
13 15.08 З 7 15 км слаб. дождь н/о +27.3 +25.0 87 +39 +39 очень
душно
991.2 981.8
14 15.08 З 5 17 км слаб. дождь н/о +27.3 +24.6 85 +39 +39 очень
душно
991.9 982.5
15 15.08 З 4 16 км в посл. час дождь н/о +27.2 +24.1 83 +38 +38 очень
душно
992.8 983.4
16 15.08 З 5 19 км н/о +27.3 +23.6 80 +37 +37 очень
душно
993.5 984.1
17 15.08 ЮЗ 4 20 км в посл. час дождь н/о +26.8 +23.3 81 +36 +36 очень
душно
994.2 984.8
18 15.08 З 4 18 км слаб. дождь н/о +26.7 +23.8 84 +37 +37 очень
душно
995.1 985.7 0.0
19 15.08 З 3 16 км в посл. час дождь н/о +26.2 +23.9 87 +36 +36 очень
душно
995.4 986.0
20 15.08 З 4 14 км в посл. час дождь н/о +26.3 +23.6 85 +36 +36 очень
душно
995.8 986.4
21 15.08 З 3 17 км слаб. дождь н/о +26.2 +23.7 86 +36 +36 очень
душно
996.8 987.4
22 15.08 ЮЗ 2 12 км слаб. дождь н/о +25.5 +24.3 93 +35 +35 очень
душно
997.9 988.4
23 15.08 Ю 2 6000 м слаб. дождь н/о +25.5 +24.6 95 +36 +36 очень
душно
998.4 988.9
00 16.08 ЮЗ 2 20 км слаб. дождь н/о +26.9 +24.4 86 +38 +38 очень
душно
998.7 989.3 +25.3 1
01 16.08 З 2 20 км слаб. дождь н/о +29.3 +24.9 77 +42 +42 опасность
перегрева
998.9 989.5
02 16.08 ЮЗ 5 20 км в посл. час дождь н/о +30.9 +23.0 63 +41 +41 опасность
перегрева
998.7 989.4
03 16.08 ЮЗ 4 20 км {дождь} н/о +30.6 +23.0 64 +41 +41 опасность
перегрева
998.8 989.5
04 16.08 ЮЗ 3 20 км н/о +30.8 +22.7 62 +40 +40 очень
душно
998.7 989.4
05 16.08 ЮЗ 4 20 км н/о +30.9 +23.0 63 +41 +41 опасность
перегрева
998.7 989.4
06 16.08 ЮЗ 3 20 км {дождь} н/о +31.1 +22.4 60 +40 +40 очень
душно
998.5 989.2 0.0
07 16.08 З 4 20 км н/о +30.7 +22.3 61 +40 +40 очень
душно
998.5 989.2
08 16.08 ЮЗ 4 20 км н/о +30.5 +21.9 60 +39 +39 очень
душно
999.3 990.0
09 16.08 З 3 20 км слаб. дождь н/о +29.2 +21.9 65 +38 +38 очень
душно
1000.0 990.6
11 16.08 ЮЗ 1 20 км в посл. час дождь н/о +26.7 +22.8 79 +35 +35 очень
душно
1001.3 991.8
12 16.08 З 2 20 км {дождь} н/о +26.5 +21.9 76 +34 +34 очень
душно
1002.6 993.1 +32.0 0.0
13 16.08 СВ 1 18 км н/о +25.6 +22.3 82 +33 +33 очень
душно
1002.8 993.3
15 16.08 В 2 14 км н/о +24.4 +22.7 90 +32 +32 очень
душно
1003.1 993.5
16 16.08 ЮВ 1 14 км н/о +23.8 +22.1 90 +31 +31 очень
душно
1003.1 993.5
17 16.08 ЮВ 2 13 км н/о +23.5 +22.0 91 +30 +30 очень
душно
1003.1 993.5
18 16.08 ЮВ 2 12 км н/о +23.1 +21.9 93 +31 +31 очень
душно
1003.4 993.8
19 16.08 ЮВ 2 11 км н/о +22.9 +21.9 94 +31 +31 очень
душно
1003.6 994.0
20 16.08 ЮВ 1 10 км н/о +22.9 +21.7 93 +31 +31 очень
душно
1004.1 994.5
21 16.08 ЮВ 1 8000 м дымка н/о +22.6 +21.8 95 +30 +30 очень
душно
1004.4 994.8
22 16.08 В 1 9000 м дымка н/о +23.3 +22.3 94 +32 +32 очень
душно
1004.8 995.2
23 16.08 ЮВ 1 13 км н/о +25.0 +21.9 83 +32 +32 очень
душно
1005.0 995.4
00 17.08 СВ 1 17 км н/о +27.6 +22.6 74 +36 +36 очень
душно
1005.1 995.6 +22.4
01 17.08 З 4 19 км н/о +30.3 +22.5 63 +40 +40 очень
душно
1004.9 995.5
02 17.08 СЗ 3 20 км н/о +31.1 +21.9 58 +40 +40 очень
душно
1004.6 995.2
03 17.08 З 2 19 км н/о +31.5 +22.0 57 +40 +40 очень
душно
1004.1 994.8
04 17.08 З 3 20 км н/о +33.0 +22.1 53 +42 +42 опасность
перегрева
1003.7 994.4
05 17.08 ЮЗ 3 20 км н/о +33.0 +21.8 52 +41 +41 опасность
перегрева
1003.4 994.1
06 17.08 ЮЗ 3 20 км н/о +33.1 +22.5 54 +43 +43 опасность
перегрева
1002.9 993.6
07 17.08 З 3 20 км н/о +33.7 +22.5 52 +43 +43 опасность
перегрева
1002.7 993.4
08 17.08 З 3 20 км н/о +32.4 +21.9 54 +41 +41 опасность
перегрева
1002.5 993.2
09 17.08 З 4 20 км н/о +32.0 +22.4 57 +41 +41 опасность
перегрева
1003.0 993.7
10 17.08 СЗ 2 20 км н/о +30.2 +22.9 65 +40 +40 очень
душно
1003.6 994.2
13 17.08 З 1 12 км н/о +26.3 +23.4 84 +36 +36 очень
душно
1005.8 996.3
14 17.08 ЮЗ 1 10 км н/о +25.5 +23.4 88 +34 +34 очень
душно
1006.3 996.7
15 17.08 ЮВ 2 10 км н/о +24.8 +23.2 91 +33 +33 очень
душно
1006.6 997.0
16 17.08 Ю 1 10 км н/о +24.5 +22.9 91 +32 +32 очень
душно
1006.5 996.9
06 19.08 ЮВ 2 9000 м слаб. дождь н/о +28.1 +24.7 82 +40 +40 очень
душно
1008.0 998.5 3
09 19.08 СЗ 1 7000 м слаб. дождь н/о +26.2 +24.8 92 +37 +37 очень
душно
1008.1 998.5
10 19.08 С 1 6000 м в посл. час дождь н/о +25.8 +25.1 96 +37 +37 очень
душно
1008.5 998.9
11 19.08 В 2 3100 м слаб. дождь н/о +25.5 +25.3 99 +37 +37 очень
душно
1009.1 999.5

 

Местоположение метеостанции Хита (Япония): широта 33.32 долгота 130.93 высота над уровнем моря 84 м.

В архиве по умолчанию представлена погода в Хите за последнюю неделю. Архивные данные за месяц целиком и за предыдущие месяцы, начиная с января 2011 года, Вы можете получить, выбрав интересующий диапазон дат из раскрывающегося списка и нажав кнопку "Ввод!".


*Определитесь, кто Вы:
робот инопланетянин человек

Внимание! Время в таблицах - всемирное. Для получения местного времени необходимо прибавить поправку, которая равна 9 ч.

Смотрите также архив погоды в соседних городах и на ближайших метеорологических станциях:

Погода в Иидзуке (Япония) (43 км)
Погода на Асо (Япония) (50 км)
Погода в Фукуоке (Япония) (59 км)
Погода в Саге (Япония) (59 км)
Погода в Кумамото (Япония) (60 км)
Погода в Оите (Япония) (64 км)
Погода в Симоносеки (Япония) (70 км)
Погода на Ундзэне (Япония) (91 км)
Погода в Ямагути (Япония) (106 км)
Погода в Нобеоке (Япония) (106 км)

Пояснения к столбцам:

Ветер - указаны скорость ветра в м/с - средняя за 10 мин, порывы в срок и между сроками (в фигурных скобках) и направление, откуда дует ветер: С - северный, СВ - северо-восточный, В - восточный, ЮВ - юго-восточный, Ю - южный, ЮЗ - юго-западный, З - западный, СЗ - северо-западный.
Видимость - горизонтальная дальность видимости в метрах или километрах. При видимости от 1 до 10 км при отсутствии осадков обычно наблюдается дымка, при ухудшении видимости до 1 км и менее - туман. В сухую погоду видимость может ухудшаться дымом, пылью или мглою.
Явления - указаны атмосферные явления, наблюдавшиеся в срок или в последний час перед сроком; фигурными скобками обозначены явления, наблюдавшиеся между сроками (за 1-3 часа до срока); квадратными скобками обозначены град или гололедные отложения с указанием их диаметра в мм.
Облачность - указаны через наклонную черту общая и нижняя облачность в баллах и высота нижней границы облаков в метрах; квадратными скобками обозначены формы облаков: Ci - перистые, Cs - перисто-слоистые, Cc - перисто-кучевые, Ac - высококучевые, As - высокослоистые, Sc - слоисто-кучевые, Ns - слоисто-дождевые, Cu - кучевые, Cb - кучево-дождевые. Подробнее классификацию облаков см. в Атласе облаков (PDF).
T - Температура воздуха - температура, измеренная на высоте 2 м над землей.
Td - Температура точки росы - температура, при понижении до которой содержащийся в воздухе водяной пар достигнет насыщения.
f - Относительная влажность воздуха - влажноcть воздуха, измеренная на высоте 2 м над землей.
Te - Эффективная температура - температура, которую ощущает одетый по сезону человек в тени. Характеристика душности погоды. При расчете учитывается влияние влажности воздуха и скорости ветра на теплоощущения человека.
Tes - Эффективная температура на солнце - температура, которую ощущает человек, с поправкой на солнечный нагрев. Характеристика знойности погоды. Зависит от высоты солнца над горизонтом, облачности и скорости ветра. Ночью, в пасмурную погоду, а также при ветре 12 м/с и более поправка равна нулю.
P - Атмосферное давление - приведенное к уровню моря атмосферное давление.
Po - Атмосферное давление - измеренное на уровне метеостанции атмосферное давление.
Tmin - Минимальная температура - минимум температуры воздуха на высоте 2 м над землей.
Tmax - Максимальная температура - максимум температуры воздуха на высоте 2 м над землей.
R - Количество осадков - Количество выпавших осадков за период времени, мм. При наведении курсора мыши на число - период времени, за который выпало указанное количество осадков.
R24 - Количество осадков - Количество выпавших осадков за 24 часа, мм.
S - Снежный покров - Высота снежного покрова, см. При наведении курсора мыши на число - состояние снежного покрова и степень покрытия местности в баллах.